Location: Leuk
(46.3174°N, 7.6341°E)
Time: 14:01:29
(UTC+00:00)

CZ-4B R/B - Pass Details

Date: 09 March 2021
Orbit: 388 x 454 km, 97.6° (Epoch: 19 April)

Event Time Altitude Azimuth Distance (km) Brightness Sun altitude
Rises 04:32:45 0° 159° (SSE) 2,310 5.2 -14.8°
Reaches altitude 10° 04:34:44 10° 156° (SSE) 1,446 4.2 -14.4°
Maximum altitude 04:37:47 62° 75° (ENE) 452 1.7 -13.9°
Drops below altitude 10° 04:40:48 10° 354° (N) 1,438 4.0 -13.4°
Sets 04:42:47 0° 351° (N) 2,296 5.0 -13.1°
